Cosco Aden — VRKF9 — position and weather

sailwx.info

Track history (hours):
 
Tides and Currents Weather Stations Pressure Air Temp Water Temp Dewpoint Dewpoint Depression Visibility Wind Speed Wind Dir Waves Ship Positions

Cosco Aden

Last reported at 2014-Oct-19 05:29 UTC. Time now 2014-Oct-21 16:45 UTC.
Position N 36°38' E 122°20'.

Length 261 m; draft 11.6 m.

Type: Ship (hazmat cat A). MMSI: 477765900.

Date/timePositionNaut miles runAvg speedWind from/ knotsBaromVisibWave heightAir tempDewpointWater temp
2014-Oct-19 05:29N 36°38' E 122°20'910.1
2014-Oct-19 04:33N 36°44' E 122°29'1010.3
2014-Oct-19 03:33N 36°51' E 122°39'1010.4
2014-Oct-19 02:33N 36°60' E 122°46'1111.3
2014-Oct-19 01:33N 37°11' E 122°46'1211.7
2014-Oct-19 00:33N 37°23' E 122°46'1313.1
2014-Oct-18 23:33N 37°34' E 122°39'1211.8
2014-Oct-18 22:33N 37°43' E 122°28'1111.2
2014-Oct-18 21:33N 37°51' E 122°18'1212.1
2014-Oct-18 20:34N 37°55' E 122°04'1413.2
2014-Oct-18 19:31N 38°04' E 121°50'1313.2
2014-Oct-18 18:34N 38°12' E 121°38'1313.3
2014-Oct-18 17:33N 38°19' E 121°24'1513.5
2014-Oct-18 16:28N 38°26' E 121°07'15412.8
2014-Oct-18 04:27N 38°57' E 117°55'7 6.5
2014-Oct-18 03:26N 38°59' E 117°46'0 0.0
2014-Oct-18 02:32N 38°59' E 117°46'0 0.0
2014-Oct-18 01:32N 38°59' E 117°46'0 0.0
2014-Oct-18 00:26N 38°59' E 117°46'0 0.0
2014-Oct-17 23:32N 38°59' E 117°46'0 0.0
2014-Oct-17 22:32N 38°59' E 117°46'0 0.0
2014-Oct-17 21:32N 38°59' E 117°46'0 0.0
2014-Oct-17 20:26N 38°59' E 117°46'0 0.0
2014-Oct-17 19:32N 38°59' E 117°46'0 0.0
2014-Oct-17 18:26N 38°59' E 117°46'0 0.0
2014-Oct-17 17:20N 38°59' E 117°46'0 0.0
2014-Oct-17 16:32N 38°59' E 117°46'0 0.2
2014-Oct-17 15:33N 38°58' E 117°47'9 9.1
2014-Oct-17 14:33N 38°57' E 117°58'8 8.2
2014-Oct-17 13:33N 38°56' E 118°08'6 6.5
2014-Oct-17 12:34N 38°54' E 118°17'10 9.8
2014-Oct-17 11:33N 38°50' E 118°28'4412.6
2014-Oct-17 08:04N 38°47' E 119°24'7811.5
2014-Oct-17 01:17N 38°34' E 121°03'1013.2
2014-Oct-17 00:32N 38°31' E 121°15'1212.8
2014-Oct-16 23:33N 38°31' E 121°31'1211.8
2014-Oct-16 22:33N 38°35' E 121°46'1312.8
2014-Oct-16 21:33N 38°47' E 121°52'11 1.0
2014-Oct-16 10:33N 38°57' E 121°57'6 6.2
2014-Oct-16 09:33N 38°51' E 121°58'1312.4
2014-Oct-16 08:33N 38°40' E 122°05'6014.8
2014-Oct-16 04:29N 37°46' E 122°40'1415.0
2014-Oct-16 03:33N 37°34' E 122°48'1414.4
2014-Oct-16 02:33N 37°20' E 122°54'1514.5
2014-Oct-16 01:31N 37°05' E 122°54'1313.7
2014-Oct-16 00:33N 36°52' E 122°53'1211.8
2014-Oct-15 23:31N 36°39' E 122°54'33112.2
2014-Oct-14 20:19N 31°11' E 122°11'2513.7
2014-Oct-14 18:30N 31°19' E 121°43'3 3.1
2014-Oct-14 17:33N 31°20' E 121°40'0 0.0
2014-Oct-14 16:21N 31°20' E 121°40'0 0.1
2014-Oct-14 15:33N 31°20' E 121°40'0 0.0
2014-Oct-14 14:09N 31°20' E 121°40'0 0.0
2014-Oct-14 13:21N 31°20' E 121°40'0 0.0
2014-Oct-14 12:27N 31°20' E 121°40'0 0.1
2014-Oct-14 11:27N 31°20' E 121°40'0 0.1
2014-Oct-14 10:27N 31°20' E 121°40'0 0.0
2014-Oct-14 09:27N 31°20' E 121°40'0 0.1
2014-Oct-14 08:27N 31°20' E 121°40'0 0.2
2014-Oct-14 06:33N 31°20' E 121°40'7 7.0
2014-Oct-14 05:32N 31°18' E 121°48'37 9.3
2014-Oct-14 01:31N 31°06' E 122°29'8 6.5
2014-Oct-14 00:18N 30°59' E 122°33'811.0
2014-Oct-13 23:33N 30°51' E 122°34'1010.4
2014-Oct-13 22:33N 30°41' E 122°39'0 0.1
2014-Oct-13 19:32N 30°41' E 122°39'0 0.1
2014-Oct-13 18:32N 30°41' E 122°39'0 0.0
2014-Oct-13 17:20N 30°41' E 122°39'0 0.0
2014-Oct-13 16:32N 30°41' E 122°39'0 0.0
2014-Oct-13 12:20N 30°41' E 122°39'0 0.1
2014-Oct-13 05:20N 30°41' E 122°39'0 0.0
2014-Oct-13 03:32N 30°41' E 122°39'0 0.0
2014-Oct-13 02:08N 30°41' E 122°39'0 0.0
2014-Oct-13 01:26N 30°41' E 122°39'0 0.0
2014-Oct-12 23:14N 30°41' E 122°39'0 0.0
2014-Oct-12 22:14N 30°41' E 122°39'0 0.0
2014-Oct-12 21:26N 30°41' E 122°39'0 0.0
2014-Oct-12 19:27N 30°41' E 122°39'0 0.0
2014-Oct-12 18:30N 30°41' E 122°39'0 0.0
2014-Oct-12 17:31N 30°41' E 122°39'0 0.1
2014-Oct-12 16:32N 30°41' E 122°39'0 0.0
2014-Oct-12 15:26N 30°41' E 122°39'0 0.0
2014-Oct-12 14:26N 30°41' E 122°39'0 0.0
2014-Oct-12 13:33N 30°41' E 122°39'0 0.0
2014-Oct-12 12:29N 30°41' E 122°39'0 0.0
2014-Oct-12 11:33N 30°41' E 122°39'0 0.1
2014-Oct-12 10:29N 30°41' E 122°39'0 0.4
2014-Oct-12 09:33N 30°41' E 122°39'0 0.2
2014-Oct-12 08:33N 30°41' E 122°39'0 0.2
2014-Oct-12 07:33N 30°41' E 122°39'9 9.1
2014-Oct-12 06:33N 30°36' E 122°47'1211.9
2014-Oct-12 05:31N 30°29' E 122°59'5610.4
2014-Oct-12 00:09N 29°34' E 122°49'5 8.4
2014-Oct-11 23:33N 29°29' E 122°47'25 8.2
2014-Oct-11 20:30N 29°06' E 122°36'326 9.0
2014-Oct-10 08:20N 24°34' E 119°15'8 9.9
2014-Oct-10 07:31N 24°29' E 119°09'20 9.0
2014-Oct-10 05:18N 24°16' E 118°52'19 9.3
2014-Oct-10 03:18N 24°04' E 118°36'910.7
2014-Oct-10 02:29N 23°58' E 118°29'1011.2
2014-Oct-10 01:33N 23°52' E 118°21'1312.2
2014-Oct-10 00:31N 23°43' E 118°10'1212.2
2014-Oct-09 23:33N 23°36' E 118°00'1511.4
2014-Oct-09 22:12N 23°25' E 117°48'810.9
2014-Oct-09 21:29N 23°18' E 117°45'  
Track history (hours):
 
Tides and Currents Weather Stations Pressure Air Temp Water Temp Dewpoint Dewpoint Depression Visibility Wind Speed Wind Dir Waves Ship Positions

Cosco Aden

Last reported at 2014-Oct-19 05:29 UTC. Time now 2014-Oct-21 16:45 UTC.
Position N 36°38' E 122°20'.

Length 261 m; draft 11.6 m.

Type: Ship (hazmat cat A). MMSI: 477765900.

Date/timePositionNaut miles runAvg speedWind from/ knotsBaromVisibWave heightAir tempDewpointWater temp
2014-Oct-19 05:29N 36°38' E 122°20'910.1
2014-Oct-19 04:33N 36°44' E 122°29'1010.3
2014-Oct-19 03:33N 36°51' E 122°39'1010.4
2014-Oct-19 02:33N 36°60' E 122°46'1111.3
2014-Oct-19 01:33N 37°11' E 122°46'1211.7
2014-Oct-19 00:33N 37°23' E 122°46'1313.1
2014-Oct-18 23:33N 37°34' E 122°39'1211.8
2014-Oct-18 22:33N 37°43' E 122°28'1111.2
2014-Oct-18 21:33N 37°51' E 122°18'1212.1
2014-Oct-18 20:34N 37°55' E 122°04'1413.2
2014-Oct-18 19:31N 38°04' E 121°50'1313.2
2014-Oct-18 18:34N 38°12' E 121°38'1313.3
2014-Oct-18 17:33N 38°19' E 121°24'1513.5
2014-Oct-18 16:28N 38°26' E 121°07'15412.8
2014-Oct-18 04:27N 38°57' E 117°55'7 6.5
2014-Oct-18 03:26N 38°59' E 117°46'0 0.0
2014-Oct-18 02:32N 38°59' E 117°46'0 0.0
2014-Oct-18 01:32N 38°59' E 117°46'0 0.0
2014-Oct-18 00:26N 38°59' E 117°46'0 0.0
2014-Oct-17 23:32N 38°59' E 117°46'0 0.0
2014-Oct-17 22:32N 38°59' E 117°46'0 0.0
2014-Oct-17 21:32N 38°59' E 117°46'0 0.0
2014-Oct-17 20:26N 38°59' E 117°46'0 0.0
2014-Oct-17 19:32N 38°59' E 117°46'0 0.0
2014-Oct-17 18:26N 38°59' E 117°46'0 0.0
2014-Oct-17 17:20N 38°59' E 117°46'0 0.0
2014-Oct-17 16:32N 38°59' E 117°46'0 0.2
2014-Oct-17 15:33N 38°58' E 117°47'9 9.1
2014-Oct-17 14:33N 38°57' E 117°58'8 8.2
2014-Oct-17 13:33N 38°56' E 118°08'6 6.5
2014-Oct-17 12:34N 38°54' E 118°17'10 9.8
2014-Oct-17 11:33N 38°50' E 118°28'4412.6
2014-Oct-17 08:04N 38°47' E 119°24'7811.5
2014-Oct-17 01:17N 38°34' E 121°03'1013.2
2014-Oct-17 00:32N 38°31' E 121°15'1212.8
2014-Oct-16 23:33N 38°31' E 121°31'1211.8
2014-Oct-16 22:33N 38°35' E 121°46'1312.8
2014-Oct-16 21:33N 38°47' E 121°52'11 1.0
2014-Oct-16 10:33N 38°57' E 121°57'6 6.2
2014-Oct-16 09:33N 38°51' E 121°58'1312.4
2014-Oct-16 08:33N 38°40' E 122°05'6014.8
2014-Oct-16 04:29N 37°46' E 122°40'1415.0
2014-Oct-16 03:33N 37°34' E 122°48'1414.4
2014-Oct-16 02:33N 37°20' E 122°54'1514.5
2014-Oct-16 01:31N 37°05' E 122°54'1313.7
2014-Oct-16 00:33N 36°52' E 122°53'1211.8
2014-Oct-15 23:31N 36°39' E 122°54'33112.2
2014-Oct-14 20:19N 31°11' E 122°11'2513.7
2014-Oct-14 18:30N 31°19' E 121°43'3 3.1
2014-Oct-14 17:33N 31°20' E 121°40'0 0.0
2014-Oct-14 16:21N 31°20' E 121°40'0 0.1
2014-Oct-14 15:33N 31°20' E 121°40'0 0.0
2014-Oct-14 14:09N 31°20' E 121°40'0 0.0
2014-Oct-14 13:21N 31°20' E 121°40'0 0.0
2014-Oct-14 12:27N 31°20' E 121°40'0 0.1
2014-Oct-14 11:27N 31°20' E 121°40'0 0.1
2014-Oct-14 10:27N 31°20' E 121°40'0 0.0
2014-Oct-14 09:27N 31°20' E 121°40'0 0.1
2014-Oct-14 08:27N 31°20' E 121°40'0 0.2
2014-Oct-14 06:33N 31°20' E 121°40'7 7.0
2014-Oct-14 05:32N 31°18' E 121°48'37 9.3
2014-Oct-14 01:31N 31°06' E 122°29'8 6.5
2014-Oct-14 00:18N 30°59' E 122°33'811.0
2014-Oct-13 23:33N 30°51' E 122°34'1010.4
2014-Oct-13 22:33N 30°41' E 122°39'0 0.1
2014-Oct-13 19:32N 30°41' E 122°39'0 0.1
2014-Oct-13 18:32N 30°41' E 122°39'0 0.0
2014-Oct-13 17:20N 30°41' E 122°39'0 0.0
2014-Oct-13 16:32N 30°41' E 122°39'0 0.0
2014-Oct-13 12:20N 30°41' E 122°39'0 0.1
2014-Oct-13 05:20N 30°41' E 122°39'0 0.0
2014-Oct-13 03:32N 30°41' E 122°39'0 0.0
2014-Oct-13 02:08N 30°41' E 122°39'0 0.0
2014-Oct-13 01:26N 30°41' E 122°39'0 0.0
2014-Oct-12 23:14N 30°41' E 122°39'0 0.0
2014-Oct-12 22:14N 30°41' E 122°39'0 0.0
2014-Oct-12 21:26N 30°41' E 122°39'0 0.0
2014-Oct-12 19:27N 30°41' E 122°39'0 0.0
2014-Oct-12 18:30N 30°41' E 122°39'0 0.0
2014-Oct-12 17:31N 30°41' E 122°39'0 0.1
2014-Oct-12 16:32N 30°41' E 122°39'0 0.0
2014-Oct-12 15:26N 30°41' E 122°39'0 0.0
2014-Oct-12 14:26N 30°41' E 122°39'0 0.0
2014-Oct-12 13:33N 30°41' E 122°39'0 0.0
2014-Oct-12 12:29N 30°41' E 122°39'0 0.0
2014-Oct-12 11:33N 30°41' E 122°39'0 0.1
2014-Oct-12 10:29N 30°41' E 122°39'0 0.4
2014-Oct-12 09:33N 30°41' E 122°39'0 0.2
2014-Oct-12 08:33N 30°41' E 122°39'0 0.2
2014-Oct-12 07:33N 30°41' E 122°39'9 9.1
2014-Oct-12 06:33N 30°36' E 122°47'1211.9
2014-Oct-12 05:31N 30°29' E 122°59'5610.4
2014-Oct-12 00:09N 29°34' E 122°49'5 8.4
2014-Oct-11 23:33N 29°29' E 122°47'25 8.2
2014-Oct-11 20:30N 29°06' E 122°36'326 9.0
2014-Oct-10 08:20N 24°34' E 119°15'8 9.9
2014-Oct-10 07:31N 24°29' E 119°09'20 9.0
2014-Oct-10 05:18N 24°16' E 118°52'19 9.3
2014-Oct-10 03:18N 24°04' E 118°36'910.7
2014-Oct-10 02:29N 23°58' E 118°29'1011.2
2014-Oct-10 01:33N 23°52' E 118°21'1312.2
2014-Oct-10 00:31N 23°43' E 118°10'1212.2
2014-Oct-09 23:33N 23°36' E 118°00'1511.4
2014-Oct-09 22:12N 23°25' E 117°48'810.9
2014-Oct-09 21:29N 23°18' E 117°45'  

Dump ship's entire track history